Location: York
(31.8935°S, 116.7682°E)
Time: 19:18:02
(UTC+08:00)

deb Explorer IX - Pass Details

Date: 27 September 2022
Orbit: 533 x 1057 km, 38.8° (Epoch: 30 November)

Event Time Altitude Azimuth Distance (km) Brightness Sun altitude
Rises 22:07:49 0° 267° (W) 3,121 ? -46.5°
Enters shadow 22:08:03 - 266° (W) 3,035 ? -46.6°
Reaches altitude 10° 22:10:32 10° 258° (WSW) 2,112 - -46.9°
Maximum altitude 22:15:02 37° 190° (S) 958 - -47.6°
Drops below altitude 10° 22:19:04 10° 121° (ESE) 1,884 - -48.2°
Sets 22:21:21 0° 112° (ESE) 2,739 - -48.5°
